Погода в Джизаке

Погода в Джизаке : погода сейчас, прогноз погоды и архив. Всё, что Вы хотите узнать о погоде в Джизаке!

Хотите узнать прогноз погоды в Джизаке? Тогда Вам сюда: Погода в Джизаке

Поиск расширенной информации на нашем сайте:

Другие новости

Новости СМИ2

Главная страница сайта

Новости сайта

03.07.2017

Напоминаем, что на нашем специализированном сайте Метеоцентр.Азия вы можете получить высокодетализированные автоматические прогнозы погоды по пунктам России, СНГ и мира в авиационном формате (включающие направление и скорость ветра, видимость, явления погоды, количество и форму облачности, нижнюю и верхнюю границу облачности).


Погода в Джизаке - сегодня

Время (UTC), дата Ветер
(°,м/с) 
Видим.   Явления Облачность Т
(°С)
Тd
(°С)
f(%) Тe
(°С)
Pmin
(гПа)
dP
(гПа)
Po
(мм)
O2
(г/м3)
Тmin Tmax R s Состояние
почвы
18 17.11.17 тихо ()   н/о    ясно 
+3.1 -0.7 76 +3  1026.1  -0.1  738  294    +15.5       
21 17.11.17 230 (ЮЗ) н/о    ясно 
+8.1 +0 57 +7  1023.9  -1.3  737  288           
00 18.11.17 260 (З) н/о    ясно 
+6.7 +0 62 +7  1024.5  0.3  737  290    +0.1       
03 18.11.17 290 (З) 20000 м    4/0 верхняя 
[Ci fib]
+6.9 +0 61 +7  1024.5  0.1  737  290           
06 18.11.17 280 (З) 10 км    8/0 верхняя 
[Ci fib]
+12.8 +0.6 43 +13  1025.3  1.5  738  284  +2.4         
09 18.11.17 020 (С) 10 км    8/0 верхняя 
[Ci fib]
+15.2 +3.6 46 +16  1025.3  0.4  738  281           
12 18.11.17 040 (СВ) 10 км    3/0 средняя 
[Ac lent]
+12.6 +2.9 52 +14  1027.5  1.9  740  284           
15 18.11.17 260 (З) н/о    6/0 средняя, верхняя 
[Ac lent|Ci fib]
+8.2 +2.5 67 +9  1030.4  741  290    +16.1       
18 18.11.17 270 (З) н/о    3/0 верхняя 
[Ci fib]
+4.9 -1 66 +6  1033  2.1  743  294    +16.1       
21 18.11.17 010 (С) н/о    10/0 средняя 
[As op]
+3.5 -0.3 76 +3  1034.2  0.8  743  296           
00 19.11.17 100 (В) н/о    10/0 средняя 
[Ac As]
+3.5 +1.2 85 +3  1034.2  743  296           
03 19.11.17 040 (СВ) 10 км    10/8 600 м средняя 
[Sc|Ac As]
+2.8 +0.7 86 +1  1035  0.6  744  297           
06 19.11.17 060 (СВ) 10 км    10/10 600 м 
[St]
+3.1 +0.2 81 +3  1034.9  0.1  744  296  +2.8         
09 19.11.17 070 (В) 10 км    10/10 600 м кучево-дожд. 
[Cb cap]
+4.2 -0 74 +4  1033.4  -1.3  743  295           
12 19.11.17 тихо ()   10 км    3/0 средняя 
[Ac As]
+5.5 -0.3 66 +6  1032  -1.2  742  293           
15 19.11.17 тихо ()   н/о    ясно 
+1.8 -0.7 83 +2  1032.3  -0.3  742  297    +5.8       
18 19.11.17 тихо ()   н/о    ясно 
-1.2 -2.9 88 -1  1031.5  -1.2  741  300    +5.8       
21 19.11.17 тихо ()   н/о    ясно 
-2 -3.8 87 -2  1030.4  -1.2  740  301           
00 20.11.17 тихо ()   н/о    ясно 
-2.8 -4.4 89 -3  1029.8  -0.6  740  302           
03 20.11.17 тихо ()   20000 м    ясно 
-3 -4.7 88 -3  1029.9  -0.1  740  302  -3        сухая 
06 20.11.17 тихо ()   10 км    ясно 
+6.4 -0.7 60 +6  1028.4  0.1  740  291  -3         
09 20.11.17 180 (Ю) 10 км    ясно 
+11.6 +0.4 46 +13  1025.8  -1.8  738  285           
12 20.11.17 тихо ()   10 км    ясно 
+11.4 -0.2 45 +11  1025.3  -0.5  738  285           
15 20.11.17 тихо ()   н/о    ясно 
+2.7 -1.2 75 +3  1026.8  0.2  738  295    +12.7      мокрая 
18 20.11.17 тихо ()   н/о    ясно 
+0.1 -2.6 82 1026.7  -0.4  738  297    +12.7       
Время (UTC), дата Ветер
(°,м/с) 
Видим.   Явления Облачность Т
(°С)
Тd
(°С)
f(%) Тe
(°С)
Pmin
(гПа)
dP
(гПа)
Po
(мм)
O2
(г/м3)
Тmin Tmax R s Состояние
почвы

Для получения пояснительной информации подведите курсор к названию столбца.

ПОГОДА в Джизаке - архив

Всё, что Вы хотите узнать о погоде в Джизаке - удобно и подробно!

Выберите нужную дату (начиная с 1 января 2015* года) и нажмите кнопку "Найти".
Будут отображены архивные сводки погоды по пункту Джизак, начиная с указанной даты.


Отображать данные в формате CSV (для использования в таблицах Excel)


Внимание! Наш архив погоды предназначен исключительно для личного некоммерческого использования в познавательных целях. Если Вам необходимы официальные справки о состоянии погоды (для производственных, юридических, коммерческих и т.п. целей), обращайтесь в органы Росгидромета.

*Примечание: данная дата относится к архиву по метеостанциям СССР (Россия, СНГ, Балтия).
Архив по метеостанциям Зарубежной Европы и Азии (кроме Китая) хранится 10 дней, по другим регионам земного шара (Китай, Африка, Америка, Австралия, Океания) - 1 день.

Джизак - район местоположения метеостанции


Название, широта, долгота, высота метеостанции:
Джизак 40.1°ш. 67.8°д. 345 м над ур. моря [Узбекистан]

Дополнительная информация

В oтличие oт бoльшинства пoгoдных сайтoв мы публикуем пoдрoбную метеoинфoрмацию в детальнoм прoфессиoнальнoм фoрмате.

Характеристики температуры и влажнoсти вoздуха измеряются на высoте 2 м в тени вдали oт зданий и деревьев.
Скoрoсть ветра измеряется на высoте 10 м (на урoвне рoста челoвека скoрoсть ветра ниже в 1.5-2 раза). Если метеoстанция нахoдится в гoрoде или в лесу, тo скoрoсть ветра занижена на 2-4 м/с пo сравнению с oткрытым местoм. Скoрoсть ветра над акватoриями крупных рек и oзёр, а также на вершинах хoлмoв на 2-5 м/с выше, чем в oбычных услoвиях.
Атмoсфернoе давление в разных тoчках местнoсти мoжет значительнo oтличаться oт давления на метеoстанции, в зависимoсти oт услoвий рельефа (при пoдъёме на 10 м давление пoнижается примернo на 1 мм рт.ст.).